EN

Hourly Weather Lacko

Today, 23 July, Friday

Time Temperature Precipitation Wind Pressure Humidity
00:00 +14°C° 0 mm 1 mps 732 mmHg 92%
01:00 +14°C° 0 mm 1 mps 732 mmHg 92%
02:00 +14°C° 0 mm 1 mps 732 mmHg 92%
03:00 +14°C° 0 mm 1 mps 731 mmHg 92%
04:00 +14°C° 0 mm 1 mps 731 mmHg 92%
05:00 +14°C° 0 mm 0 mps 731 mmHg 87%
06:00 +16°C° 0 mm 0 mps 731 mmHg 81%
07:00 +17°C° 0 mm 0 mps 731 mmHg 76%
08:00 +19°C° 0 mm 0 mps 731 mmHg 70%
09:00 +22°C° 0 mm 1 mps 731 mmHg 64%
10:00 +23°C° 0 mm 1 mps 731 mmHg 58%
11:00 +24°C° 0.1 mm 1 mps 731 mmHg 58%
12:00 +24°C° 0.1 mm 1 mps 731 mmHg 57%
13:00 +24°C° 0.1 mm 1 mps 730 mmHg 56%
14:00 +24°C° 0.1 mm 1 mps 730 mmHg 60%
15:00 +24°C° 0.1 mm 1 mps 730 mmHg 64%
16:00 +23°C° 0.1 mm 1 mps 730 mmHg 67%
17:00 +22°C° 0.1 mm 1 mps 730 mmHg 73%
18:00 +21°C° 0.1 mm 1 mps 730 mmHg 78%
19:00 +18°C° 0.1 mm 0 mps 730 mmHg 83%
20:00 +17°C° 0 mm 0 mps 730 mmHg 85%
21:00 +16°C° 0 mm 0 mps 730 mmHg 87%
22:00 +15°C° 0 mm 0 mps 730 mmHg 89%
23:00 +16°C° 0 mm 1 mps 730 mmHg 90%

Tomorrow, 24 July, Saturday

Time Temperature Precipitation Wind Pressure Humidity
00:00 +16°C° 0 mm 1 mps 730 mmHg 90%
01:00 +15°C° 0 mm 1 mps 730 mmHg 91%
02:00 +15°C° 0 mm 1 mps 730 mmHg 91%
03:00 +15°C° 0 mm 1 mps 730 mmHg 91%
04:00 +15°C° 0 mm 1 mps 730 mmHg 91%
05:00 +16°C° 0 mm 1 mps 730 mmHg 85%
06:00 +17°C° 0 mm 0 mps 730 mmHg 79%
07:00 +19°C° 0 mm 0 mps 730 mmHg 74%
08:00 +21°C° 0 mm 0 mps 730 mmHg 65%
09:00 +25°C° 0 mm 1 mps 730 mmHg 57%
10:00 +27°C° 0 mm 1 mps 730 mmHg 49%
11:00 +27°C° 0 mm 1 mps 730 mmHg 47%
12:00 +28°C° 0 mm 1 mps 729 mmHg 45%
13:00 +28°C° 0 mm 2 mps 729 mmHg 44%
14:00 +27°C° 0 mm 2 mps 729 mmHg 50%
15:00 +26°C° 0 mm 1 mps 729 mmHg 56%
16:00 +26°C° 0 mm 1 mps 729 mmHg 63%
17:00 +25°C° 0.1 mm 1 mps 729 mmHg 67%
18:00 +23°C° 0.1 mm 1 mps 729 mmHg 72%
19:00 +22°C° 0.1 mm 1 mps 729 mmHg 77%
20:00 +21°C° 0 mm 1 mps 729 mmHg 78%
21:00 +20°C° 0 mm 1 mps 729 mmHg 80%
22:00 +19°C° 0 mm 1 mps 729 mmHg 82%
23:00 +19°C° 0 mm 1 mps 729 mmHg 81%

Day after tomorrow, 25 July, Sunday

Time Temperature Precipitation Wind Pressure Humidity
00:00 +17°C° 0 mm 2 mps 729 mmHg 80%
01:00 +17°C° 0 mm 2 mps 729 mmHg 79%
02:00 +17°C° 0 mm 2 mps 729 mmHg 77%
03:00 +17°C° 0 mm 2 mps 729 mmHg 75%
04:00 +17°C° 0 mm 2 mps 729 mmHg 74%
05:00 +19°C° 0 mm 2 mps 729 mmHg 69%
06:00 +21°C° 0 mm 2 mps 729 mmHg 65%
07:00 +23°C° 0 mm 1 mps 729 mmHg 60%
08:00 +25°C° 0 mm 2 mps 729 mmHg 54%
09:00 +27°C° 0 mm 2 mps 729 mmHg 47%
10:00 +29°C° 0 mm 2 mps 729 mmHg 41%
11:00 +30°C° 0 mm 3 mps 729 mmHg 39%
12:00 +30°C° 0 mm 3 mps 729 mmHg 37%
13:00 +31°C° 0 mm 3 mps 729 mmHg 35%
14:00 +30°C° 0 mm 3 mps 729 mmHg 40%
15:00 +28°C° 0 mm 2 mps 729 mmHg 46%
16:00 +27°C° 0 mm 2 mps 728 mmHg 51%
17:00 +26°C° 0 mm 2 mps 728 mmHg 55%
18:00 +25°C° 0 mm 2 mps 728 mmHg 58%
19:00 +24°C° 0 mm 1 mps 728 mmHg 62%
20:00 +23°C° 0.1 mm 2 mps 728 mmHg 65%
21:00 +21°C° 0.1 mm 2 mps 728 mmHg 68%
22:00 +21°C° 0.1 mm 3 mps 728 mmHg 70%
23:00 +20°C° 0.2 mm 3 mps 728 mmHg 74%

26 July, Monday

Time Temperature Precipitation Wind Pressure Humidity
00:00 +20°C° 0.2 mm 2 mps 728 mmHg 78%
01:00 +19°C° 0.2 mm 2 mps 728 mmHg 82%
02:00 +19°C° 0.2 mm 2 mps 728 mmHg 82%
03:00 +19°C° 0.2 mm 2 mps 728 mmHg 83%
04:00 +19°C° 0.2 mm 2 mps 728 mmHg 84%
05:00 +20°C° 0 mm 2 mps 728 mmHg 81%
06:00 +21°C° 0 mm 2 mps 728 mmHg 78%
07:00 +23°C° 0 mm 2 mps 728 mmHg 75%
08:00 +25°C° 0 mm 2 mps 728 mmHg 66%
09:00 +27°C° 0 mm 2 mps 728 mmHg 57%
10:00 +29°C° 0 mm 2 mps 728 mmHg 48%
11:00 +30°C° 0 mm 3 mps 728 mmHg 47%
12:00 +31°C° 0 mm 3 mps 728 mmHg 45%
13:00 +31°C° 0 mm 3 mps 728 mmHg 44%
14:00 +30°C° 1.1 mm 3 mps 728 mmHg 52%
15:00 +28°C° 1.1 mm 2 mps 728 mmHg 61%
16:00 +27°C° 1.1 mm 2 mps 728 mmHg 70%
17:00 +25°C° 0.8 mm 2 mps 728 mmHg 77%
18:00 +24°C° 0.8 mm 1 mps 728 mmHg 84%
19:00 +22°C° 0.8 mm 1 mps 728 mmHg 90%
20:00 +22°C° 1.2 mm 1 mps 728 mmHg 92%
21:00 +22°C° 1.2 mm 1 mps 728 mmHg 93%
22:00 +20°C° 1.2 mm 2 mps 728 mmHg 94%
23:00 +20°C° 0.1 mm 2 mps 728 mmHg 93%

27 July, Tuesday

Time Temperature Precipitation Wind Pressure Humidity
00:00 +20°C° 0.1 mm 2 mps 728 mmHg 92%
01:00 +20°C° 0.1 mm 2 mps 728 mmHg 91%
02:00 +20°C° 0 mm 2 mps 728 mmHg 92%
03:00 +19°C° 0 mm 2 mps 728 mmHg 92%
04:00 +19°C° 0 mm 2 mps 728 mmHg 92%
05:00 +20°C° 0 mm 2 mps 728 mmHg 89%
06:00 +21°C° 0 mm 2 mps 728 mmHg 86%
07:00 +23°C° 0 mm 1 mps 729 mmHg 83%
08:00 +25°C° 0 mm 2 mps 729 mmHg 75%
09:00 +26°C° 0 mm 2 mps 729 mmHg 68%
10:00 +28°C° 0 mm 3 mps 730 mmHg 60%
11:00 +28°C° 0.1 mm 3 mps 730 mmHg 59%
12:00 +28°C° 0.1 mm 2 mps 730 mmHg 58%
13:00 +29°C° 0.1 mm 2 mps 730 mmHg 57%
14:00 +28°C° 0.3 mm 2 mps 730 mmHg 61%
15:00 +28°C° 0.3 mm 2 mps 730 mmHg 65%
16:00 +27°C° 0.3 mm 1 mps 730 mmHg 69%
17:00 +26°C° 0.2 mm 1 mps 730 mmHg 75%
18:00 +25°C° 0.2 mm 1 mps 730 mmHg 80%
19:00 +23°C° 0.2 mm 1 mps 729 mmHg 85%
20:00 +23°C° 0.2 mm 1 mps 730 mmHg 87%
21:00 +22°C° 0.2 mm 1 mps 730 mmHg 89%
22:00 +21°C° 0.2 mm 1 mps 730 mmHg 91%
23:00 +21°C° 0 mm 1 mps 730 mmHg 92%

28 July, Wednesday

Time Temperature Precipitation Wind Pressure Humidity
00:00 +21°C° 0 mm 1 mps 730 mmHg 93%
01:00 +20°C° 0 mm 1 mps 729 mmHg 93%
02:00 +20°C° 0 mm 1 mps 729 mmHg 93%
03:00 +19°C° 0 mm 2 mps 729 mmHg 93%
04:00 +19°C° 0 mm 2 mps 729 mmHg 93%
05:00 +20°C° 0 mm 2 mps 729 mmHg 89%
06:00 +23°C° 0 mm 2 mps 729 mmHg 85%
07:00 +24°C° 0 mm 2 mps 729 mmHg 80%
08:00 +25°C° 0.2 mm 2 mps 729 mmHg 78%
09:00 +25°C° 0.2 mm 3 mps 729 mmHg 76%
10:00 +26°C° 0.2 mm 3 mps 729 mmHg 74%
11:00 +25°C° 0.4 mm 3 mps 730 mmHg 79%
12:00 +22°C° 0.4 mm 3 mps 730 mmHg 84%
13:00 +21°C° 0.4 mm 3 mps 730 mmHg 89%
14:00 +21°C° 0.1 mm 3 mps 730 mmHg 87%
15:00 +21°C° 0.1 mm 3 mps 731 mmHg 84%
16:00 +21°C° 0.1 mm 2 mps 731 mmHg 81%
17:00 +20°C° 0 mm 2 mps 731 mmHg 84%
18:00 +21°C° 0 mm 1 mps 731 mmHg 86%
19:00 +20°C° 0 mm 1 mps 731 mmHg 89%
20:00 +19°C° 0 mm 1 mps 731 mmHg 90%
21:00 +19°C° 0 mm 1 mps 731 mmHg 92%
22:00 +18°C° 0 mm 1 mps 732 mmHg 94%
23:00 +18°C° 0 mm 1 mps 731 mmHg 94%
Show more